Home   Weather   Annapolis   Past weeks

Flag for USA Past Weather in Annapolis, Maryland, USA — Yesterday and Last 2 Weeks

Now
81 °F

Sunny.


Feels Like: 84 °F
Forecast: 69 / 85 °F
Wind: 3 mph from Southeast

Location: Annapolis - United States Naval Academy

Current Time: Sep 25, 2017 at 11:30:41 am

Latest Report: Sep 25, 2017 at 10:54 am


Visibility: 10 mi

Pressure: 30.06 "Hg

Humidity: 65%

Dew Point: 68 °F

Location of AnnapolisLocation

Past Weather in Annapolis — Graph

°F

Annapolis Temperature Yesterday

Maximum temperature yesterday: 89 °F (at 2:54 pm)
Minimum temperature yesterday: 71 °F (at 12:54 am)
Average temperature yesterday: 78 °F

High & Low Weather Summary for the Past Weeks

 TemperatureHumidityPressure
High89 °F (Sep 24, 2:54 pm)100% (Sep 13, 7:04 am)30.40 "Hg (Sep 13, 7:04 am)
Low61 °F (Sep 11, 1:54 am)43% (Sep 12, 12:54 pm)29.84 "Hg (Sep 13, 5:54 pm)
Average75 °F82%30.02 "Hg
* Reported Sep 10 9:54 am — Sep 25 9:54 am, Annapolis. Weather by CustomWeather, © 2017

Note: Actual official high and low records may vary slightly from our data, if they occured in-between our weather recording intervals... More about our weather records

Advertising

Annapolis Weather History for the Previous 24 Hours

Scroll right to see more
 ConditionsComfort  
Time TempWeatherWind HumidityBarometerVisibility
9:54 am
Mon, Sep 25
80 °FSunny.5 mph64%30.06 "Hg10 mi
7:54 am75 °FFog.No wind96%30.05 "Hg6 mi
6:54 am73 °FFog.No wind100%30.04 "Hg6 mi
5:54 am72 °FClear.No wind100%30.03 "Hg7 mi
4:54 am73 °FClear.No wind100%30.02 "Hg8 mi
3:54 am73 °FFog.No wind100%30.01 "Hg6 mi
2:54 am73 °FClear.No wind100%30.02 "Hg7 mi
1:54 am74 °FClear.No wind97%30.02 "Hg8 mi
12:54 am75 °FClear.No wind96%30.03 "Hg10 mi
11:54 pm
Sun, Sep 24
75 °FClear.No wind94%30.04 "Hg10 mi
10:54 pm75 °FClear.No wind100%30.04 "Hg10 mi
9:54 pm76 °FFog.No wind94%30.04 "Hg6 mi
8:54 pm78 °FClear.5 mph87%30.04 "Hg10 mi
7:54 pm79 °FClear.3 mph84%30.03 "Hg10 mi
6:54 pm81 °FSunny.No wind79%30.03 "Hg10 mi
5:54 pm87 °FSunny.5 mph55%30.03 "Hg10 mi
4:54 pm88 °FSunny.No wind55%30.03 "Hg10 mi
3:54 pm89 °FSunny.No wind53%30.03 "Hg10 mi
2:54 pm89 °FSunny.No wind52%30.05 "Hg10 mi
1:54 pm87 °FSunny.No wind50%30.06 "Hg10 mi
12:54 pm85 °FSunny.3 mph57%30.08 "Hg10 mi
11:54 am83 °FSunny.6 mph61%30.08 "Hg10 mi
Weather by CustomWeather, © 2017

See weather overviewHow to use our weather pages